星链-5870 (STARLINK-5870 )

导读 | 星芒AI

STARLINK-5870 是 SpaceX Starlink 项目中的一颗低轨通信卫星,属于第二代 Starlink 卫星(Gen2)批次。该卫星于 2023 年发射,运行在约 550 公里的轨道高度,旨在为全球提供高速、低延迟的互联网服务。它采用先进的通信技术,支持更广的覆盖范围和更高的数据传输速率。作为 Starlink 卫星群的一部分,STARLINK-5870 有助于提升偏远地区的网络接入能力,并为商业、政府和科研用户提供可靠的通信支持。

基本信息
目录编号:
57222
目录名称:
STARLINK-5870
国际标识:
2023-094E
轨道中心:
EARTH
卫星名称:
星链-5870
卫星全名:
星链-5870 (STARLINK-5870 )
卫星状态:
在轨 (已飞行898 天)
发射日期:
2023-07-07 UTC
国别 :
美国 (US)
星等 :
--
轨道信息
数据来源 国际轨道数据
星历时间: 2025-12-20T15:00:10+0800
1天前
查看轨道信息
半长轴: 6937.095km
偏心率: 0.0002653
轨道倾角: 43.004°
近地点辐角 282.918°
升交点赤经 101.997°
平近点角 77.136°
近地点: 557.117km
远地点: 560.799km
周期: 95.835分钟
每日圈数: 15.025756
详细信息
固有亮度:
5
最大亮度:
2.4
卫星平台:
Starlink v1.5
覆盖范围:
全球
运营商:
太空探索技术公司
运营商所在国:
美国
制造商(研发单位):
太空探索技术公司
制造商所在国:
美国
使用方式:
暂无
卫星简介
星链(Starlink)计划是由太空探索技术公司(SpaceX)提出的一个巨型低轨卫星互联网星座项目,计划在2019年至2024年间在太空搭建由约1.2万颗卫星组成的“星链”网络,其中1584颗将部署在地球上空550千米处的近地轨道,并从2020年开始工作。该卫星仍在工作。
2D轨道图
3D轨道图
轨道高度分析图
轨道倾角分析图
轨道综合分析图
查看轨道综合分析图